Location: Plainartige
(45.6866°N, 1.7993°E)
Time: 02:29:51
(UTC+00:00)

POLYITAN 1 - Pass Details

Date: 03 July 2022
Orbit: 586 x 605 km, 98.0° (Epoch: 13 August)

Event Time Altitude Azimuth Distance (km) Brightness Sun altitude
Rises 01:37:13 0° 15° (NNE) 2,861 ? -17.7°
Reaches altitude 10° 01:39:25 10° 17° (NNE) 1,956 ? -17.5°
Maximum altitude 01:43:40 73° 103° (ESE) 636 ? -17.2°
Enters shadow 01:45:37 31° 181° (S) 1,064 ? -17.0°
